Showing default

TROOP-F3, 68429

Orbit data source: Space-Track

TROOP-F3, 68429 is a payload satellite owned by NearSpaceLaunch (US) in SSO that was launched on Mon, 30 Mar 2026 UTC via an FALCON 9 launch vehicle from the Air Force Western Test Range (AFWTR). Payload-class satellites include a variety of spacecraft equipped with specific instruments for various scientific and technological missions. These include communications satellites like Starlink; space stations such as the ISS; scientific satellites like the Hubble; Earth observation satellites from companies like Planet Labs, Umbra, and HawkEye 360; GPS; miniature CubeSats for education and research; and military/defense satellites.

Loading next visibility...
Identifier
68429, 2026-067P
Orbit
SSO
Country
Flag of USUS
Related business
Manufacturer
NearSpaceLaunch
Mission
Operational Commercial Technology
Bus & Motor
CUBESAT 6U, Unknown motor
Mass
10 kg wet, ~10 kg dry
Launch date (UTC)
2026-03-30 (5 months ago)
Launch vehicle
FALCON 9
Launch site
Air Force Western Test Range (AFWTR)
Object type
Payload
Rocket body
Debris
Shape & HBR
Box + 4 Pan, 1.1 m
Radar Cross Section
0.139 m², Medium (>0.1 m² and < 1m²)

Expand to show TLE details & history
Last TLE update: 18 hours ago

TLE from 18 hours ago
0 TROOP-F3
1 68429U 26067P   26235.31402021  .00010615  00000-0  48222-3 0  9995
2 68429  97.4552 193.0322 0003817 123.4671 236.6930 15.20945237 22142
Epoch: 2026-08-23T07:32Z
TLE epoch observation values (Epoch: 2026-08-23T07:32:11.346Z)
Latitude
0.00002°
Longitude
108.37307°
Altitude
507.522 km
Speed
7.609 km/s
True Right ascension
12h 52m 07s
True Declination
0° 00' 00"
Sunlit
Object was in daylight at epoch
Visualization orbit readout
Latitude
Unknown
Longitude
Unknown
Altitude
Unknown
Speed
Unknown
Apparent Right ascension
Unknown
Apparent Declination
Unknown
Sunlit
N/A
Visualization observer readout
Local Sidereal Time
16:23:14
Azimuth
Unknown
Elevation
Unknown
Doppler factor
Unknown
Orbital elements
Apogee altitude
502.58 km
Perigee altitude
497.329 km
Semi-major axis
6,878.092 km
Eccentricity
0.00038
Inclination
97.4552°
RAAN
193.0322°
Arg. of periapsis
123.4671°
True anomaly
236.65645°
Mean anomaly
236.693°
Eccentric anomaly
236.67473°
Mean motion
3.80488 °/min
Orbital period
94.62 mins
BSTAR
0.00048222
Loading maneuver chart data...
Computing Atmospheric mass density...
Loading historical data...
Loading historical data...
Loading historical data...
Loading historical data...
Loading historical data...
Loading historical data...
Loading historical data...

Documentation

Showing up to 5 results
|